Capri, Italy

2:37 PM CET on February 21, 2017 (GMT +0100)
Capri

Weather History for LIQC - October, 2012

Change the Weather History Date:

Friday, October 19, 2012

  Actual Average (LIRN) Record (LIRN)
Temperature  
Mean Temperature 70 °F -  
Max Temperature 77 °F 70 °F 82 °F (2012)
Min Temperature 64 °F 54 °F 50 °F (1996)
Cooling Degree Days 6    
Growing Degree Days 20 (Base 50)    
Moisture  
Dew Point 60 °F    
Average Humidity 68    
Maximum Humidity 94    
Minimum Humidity 32    
Precipitation  
Precipitation 0.00 in - - ()
Sea Level Pressure  
Sea Level Pressure 30.10 in    
Wind  
Wind Speed 1 mph ()    
Max Wind Speed 7 mph    
Max Gust Speed -    
Visibility 9.7 miles    
Events      
Averages and records for this station are not official NWS values.
T = Trace of Precipitation, MM = Missing Value Source: Averaged Metar Reports

Daily Weather History Graph

Daily Weather History Graph

Search for Another Location

Airport or City:

Trip Planner

Search our weather history database for the weather conditions in past years. The results will help you decide how hot, cold, wet, or windy it might be!

Date:

Astronomy

Oct. 19, 2012 Rise Set
Actual Time 7:18 AM CEST 6:16 PM CEST
Civil Twilight 6:51 AM CEST 6:44 PM CEST
Nautical Twilight 6:19 AM CEST 7:16 PM CEST
Astronomical Twilight 5:47 AM CEST 7:47 PM CEST
Moon 11:45 AM CEST (10/19) 9:35 PM CEST (10/19)
Length of Visible Light 11h 53m
Length of Day
10h 58m
Waxing Crescent, 21% of the Moon is Illuminated
Oct 19
Waxing Crescent
Oct 22
First Quarter
Oct 29
Full
Nov 7
Last Quarter
Nov 13
New

Hourly Weather History & Observations

Time (CEST) Temp. Dew Point Humidity Pressure Visibility Wind Dir Wind Speed Gust Speed Precip Events Conditions
12:55 AM 68.0 °F 59.0 °F 73% 30.09 in - Calm Calm - N/A   Clear
2:00 AM 67 °F 63 °F 81% 30.10 in 6 mi Calm Calm - -  
5:00 AM 68 °F 58 °F 62% 30.09 in 6 mi ENE 6.9 mph - -  
6:55 AM 66.2 °F 62.6 °F 88% 30.09 in - Calm Calm - N/A   Clear
7:55 AM 64.4 °F 62.6 °F 94% 30.09 in - Calm Calm - N/A   Clear
8:00 AM 65 °F 63 °F 92% 30.10 in 6 mi Calm Calm - -  
8:55 AM 66.2 °F 60.8 °F 83% 30.09 in - Calm Calm - N/A   Clear
9:55 AM 68.0 °F 64.4 °F 88% 30.09 in - Calm Calm - N/A   Clear
10:55 AM 68.0 °F 62.6 °F 83% 30.09 in - Calm Calm - N/A   Clear
11:00 AM 68 °F 63 °F 80% 30.09 in 12 mi Calm Calm - -  
11:55 AM 71.6 °F 66.2 °F 83% 30.12 in - WSW 1.2 mph - N/A   Clear
12:55 PM 73.4 °F 62.6 °F 69% 30.12 in - Variable 1.2 mph - N/A   Clear
1:55 PM 75.2 °F 60.8 °F 61% 30.12 in - Variable 1.2 mph - N/A   Clear
2:00 PM 75 °F 60 °F 51% 30.11 in 12 mi 1.2 mph - -  
2:55 PM 75.2 °F 53.6 °F 47% 30.12 in - Variable 1.2 mph - N/A   Clear
3:55 PM 77.0 °F 53.6 °F 44% 30.12 in - Variable 1.2 mph - N/A   Clear
4:55 PM 77.0 °F 53.6 °F 44% 30.09 in - Calm Calm - N/A   Clear
5:00 PM 77 °F 53 °F 32% 30.09 in 12 mi Calm Calm - -   Clear
5:55 PM 73.4 °F 50.0 °F 44% 30.09 in - ENE 3.5 mph - N/A   Clear
6:55 PM 73.4 °F 59.0 °F 61% 30.09 in - NE 5.8 mph - N/A   Clear
7:55 PM 69.8 °F 51.8 °F 53% 30.09 in - ENE 4.6 mph - N/A   Clear
8:00 PM 71 °F 51 °F 38% 30.09 in 12 mi ENE 4.6 mph - -  
8:55 PM 69.8 °F 57.2 °F 64% 30.09 in - ENE 4.6 mph - N/A   Clear
9:55 PM 69.8 °F 60.8 °F 73% 30.09 in - NE 3.5 mph - N/A   Clear
10:55 PM 69.8 °F 64.4 °F 83% 30.09 in - Variable 1.2 mph - N/A   Clear
11:00 PM 70 °F 64 °F 76% 30.10 in 12 mi 1.2 mph - -  
11:55 PM 68.0 °F 66.2 °F 94% 30.09 in - Variable 1.2 mph - N/A   Clear